Results By Division


Marshman® Triathlon Presented by Kinetic PT

Race Date: Sunday September 18, 2011
Description: 1/4 Mile Swim~12.5 Mile Bike~2 Mile Run
Race Category: Sprint Triathlon
# Entrants in Division: 31

Choose:
 Division
Place
Overall
Place
NameCityStateRace AgeGenderDivisionTimeBib#
View 1 9 Linder, David West Chester PA 36 M 35-39 0:59:49 83
View 2 12 Keefe, Dave " Chief " West Chester PA 38 M 35-39 1:00:31 68
View 3 16 Jester, Deron West Chester PA 39 M 35-39 1:01:36 98
View 4 20 Manion, John West Chester PA 38 M 35-39 1:02:04 77
View 5 37 Hartman, Jeffrey Philadelphia PA 35 M 35-39 1:05:08 96
View 6 43 Marino, Christopher Downingtown PA 37 M 35-39 1:05:34 66
View 7 49 Lutcher, Fred West Chester PA 38 M 35-39 1:06:23 71
View 8 82 Ridpath, Kevin Springfield PA 37 M 35-39 1:11:28 70
View 9 85 Krauss, Michael Woolwich Twp. NJ 37 M 35-39 1:11:50 100
View 10 86 Khan, Joe Philadelphia PA 36 M 35-39 1:11:58 450
View 11 98 Smith, Stephen Warrington PA 35 M 35-39 1:12:45 73
View 12 108 Fort, Daniel West Chester PA 36 M 35-39 1:14:10 92
View 13 111 Hicks, Kevin Chadds Ford PA 39 M 35-39 1:14:41 85
View 14 128 Szabo, David Doylestown PA 38 M 35-39 1:15:37 72
View 15 129 Wesler, Jon Royersford PA 35 M 35-39 1:15:48 91
View 16 137 Bria, Mike Plymouth Meeting PA 35 M 35-39 1:16:35 99
View 17 140 Knox, Adam West Chester PA 37 M 35-39 1:16:40 69
View 18 148 Malone, James Elverson PA 35 M 35-39 1:17:13 76
View 19 149 Ruth, Eric Exton PA 36 M 35-39 1:17:14 84
View 20 150 Stone, Derek Downingtown PA 38 M 35-39 1:17:14 95
View 21 168 Muench, Nate Collegeville PA 35 M 35-39 1:18:53 80
View 22 169 May, Eric Exton PA 38 M 35-39 1:19:01 93
View 23 186 O'connell, Ryan Chester Springs PA 37 M 35-39 1:21:05 87
View 24 192 Coffey, William Devon PA 36 M 35-39 1:21:41 86
View 25 208 Santeusanio, David Marblehead MA 39 M 35-39 1:22:32 90
View 26 218 Olintz, Steve Drexel Hill PA 35 M 35-39 1:23:08 79
View 27 253 Dorris, Ken Pottstown PA 37 M 35-39 1:26:07 65
View 28 259 Schalleur, Chris Harleysville PA 39 M 35-39 1:27:06 78
View 29 288 Marusa, Damien Chester Springs PA 37 M 35-39 1:30:57 97
View 30 340 Forgione, Greg Springfield PA 39 M 35-39 1:36:46 88
View 31 346 Longenecker, David Parkesburg PA 39 M 35-39 1:38:08 452